Hanford, CA

2:34 PM PST on February 23, 2017 (GMT -0800)
Hanford Municipal

Weather History for KHJO - January, 2013

Change the Weather History Date:

Sunday, January 20, 2013

  Actual Average Record
Temperature  
Mean Temperature 45 °F 46 °F  
Max Temperature 63 °F 55 °F 70 °F (2014)
Min Temperature 26 °F 37 °F 25 °F (2007)
Degree Days  
Heating Degree Days 20    
Month to date heating degree days 461  
Since 1 July heating degree days 1399  
Cooling Degree Days 0    
Month to date cooling degree days 0  
Year to date cooling degree days 0  
Moisture  
Dew Point 34 °F    
Average Humidity 72    
Maximum Humidity 100    
Minimum Humidity 43    
Precipitation  
Precipitation 0.00 in 0.05 in 0.61 in (2017)
Month to date precipitation 0.16 1.62  
Year to date precipitation 0.16 1.62  
Since 1 July precipitation 2.16  
Snow  
Snow 0.00 in - - ()
Month to date snowfall 0.0  
Since 1 July snowfall 0.0  
Snow Depth 0.00 in    
Sea Level Pressure  
Sea Level Pressure 30.24 in    
Wind  
Wind Speed 2 mph (NW)    
Max Wind Speed 7 mph    
Max Gust Speed 9 mph    
Visibility 2 miles    
Events Fog    
T = Trace of Precipitation, MM = Missing Value Source: NWS Daily Summary

Daily Weather History Graph

Daily Weather History Graph

Search for Another Location

Airport or City:

Trip Planner

Search our weather history database for the weather conditions in past years. The results will help you decide how hot, cold, wet, or windy it might be!

Date:

Astronomy

Jan. 20, 2013 Rise Set
Actual Time 7:07 AM PST 5:12 PM PST
Civil Twilight 6:39 AM PST 5:40 PM PST
Nautical Twilight 6:08 AM PST 6:11 PM PST
Astronomical Twilight 5:37 AM PST 6:42 PM PST
Moon 12:16 PM PST (1/20) 1:45 AM PST (1/20)
Length of Visible Light 11h 00m
Length of Day
10h 05m
Waxing Gibbous, 67% of the Moon is Illuminated
Jan 20
Waxing Gibbous
Jan 26
Full
Feb 3
Last Quarter
Feb 9
New
Feb 17
First Quarter

Hourly Weather History & Observations

Time (PST) Temp. Windchill Dew Point Humidity Pressure Visibility Wind Dir Wind Speed Gust Speed Precip Events Conditions
12:30 AM 35.6 °F - 32.0 °F 87% 30.25 in 1.5 mi Calm Calm - N/A   Clear
12:50 AM 32.0 °F - 30.2 °F 93% 30.25 in 0.5 mi Calm Calm - N/A Fog Fog
12:53 AM 32.0 °F - 30.0 °F 92% 30.26 in 0.8 mi Calm Calm - N/A   Clear
1:01 AM 33.8 °F - 30.2 °F 87% 30.25 in 1.2 mi Calm Calm - N/A   Clear
1:16 AM 35.6 °F - 32.0 °F 87% 30.25 in 2.5 mi Calm Calm - N/A   Clear
1:34 AM 33.8 °F - 33.8 °F 100% 30.25 in 1.8 mi Calm Calm - N/A   Clear
1:53 AM 36.0 °F 33.3 °F 33.1 °F 89% 30.26 in 2.5 mi West 3.5 mph - N/A   Clear
2:07 AM 33.8 °F - 32.0 °F 93% 30.25 in 1.5 mi Calm Calm - N/A   Clear
2:19 AM 33.8 °F 30.8 °F 30.2 °F 87% 30.25 in 0.8 mi WNW 3.5 mph - N/A   Clear
2:27 AM 35.6 °F 31.7 °F 32.0 °F 87% 30.25 in 1.2 mi WNW 4.6 mph - N/A   Clear
2:53 AM 35.1 °F 31.0 °F 34.0 °F 96% 30.25 in 1.5 mi WNW 4.6 mph - N/A   Clear
3:53 AM 33.1 °F - 30.0 °F 89% 30.25 in 0.8 mi Calm Calm - N/A   Clear
3:58 AM 30.2 °F - 28.4 °F 93% 30.24 in 0.2 mi Calm Calm - N/A Fog Light Freezing Fog
4:07 AM 28.4 °F 23.3 °F 28.4 °F 100% 30.24 in 0.2 mi ESE 4.6 mph - N/A Fog Light Freezing Fog
4:27 AM 28.4 °F - 26.6 °F 93% 30.24 in 0.2 mi Calm Calm - N/A Fog Light Freezing Fog
4:53 AM 28.0 °F 24.2 °F 26.1 °F 92% 30.25 in 0.2 mi East 3.5 mph - N/A Fog Light Freezing Fog
5:53 AM 28.9 °F - 28.0 °F 96% 30.26 in 0.2 mi Calm Calm - N/A Fog Light Freezing Fog
6:31 AM 28.4 °F - 26.6 °F 93% 30.25 in 0.2 mi Calm Calm - N/A Fog Light Freezing Fog
6:53 AM 27.0 °F - 26.1 °F 96% 30.26 in 0.2 mi Calm Calm - N/A Fog Light Freezing Fog
7:36 AM 28.4 °F - 26.6 °F 93% 30.25 in 0.2 mi Calm Calm - N/A Fog Light Freezing Fog
7:53 AM 28.9 °F - 28.0 °F 96% 30.27 in 0.2 mi Calm Calm - N/A Fog Light Freezing Fog
8:53 AM 30.9 °F - 30.9 °F 100% 30.28 in 0.2 mi Calm Calm - N/A Fog Light Freezing Fog
10:19 AM 39.2 °F - 39.2 °F 100% 30.28 in 1.0 mi Calm Calm - N/A   Overcast
10:28 AM 41.0 °F - 39.2 °F 93% 30.28 in 1.5 mi Calm Calm - N/A   Mostly Cloudy
10:37 AM 42.8 °F - 39.2 °F 87% 30.28 in 1.5 mi Calm Calm - N/A   Scattered Clouds
10:53 AM 43.0 °F - 39.9 °F 89% 30.28 in 1.5 mi Calm Calm - N/A   Clear
11:03 AM 46.4 °F - 41.0 °F 81% 30.26 in 2.5 mi Calm Calm - N/A   Haze
11:13 AM 46.4 °F - 41.0 °F 81% 30.25 in 3.0 mi Calm Calm - N/A   Haze
11:53 AM 52.0 °F - 42.1 °F 69% 30.24 in 3.0 mi Calm Calm - N/A   Haze
12:53 PM 57.9 °F - 42.1 °F 56% 30.20 in 4.0 mi North 3.5 mph - N/A   Haze
1:53 PM 61.0 °F - 41.0 °F 48% 30.17 in 4.0 mi NNW 5.8 mph - N/A   Haze
2:53 PM 62.1 °F - 41.0 °F 46% 30.16 in 4.0 mi NW 3.5 mph - N/A   Haze
3:53 PM 62.1 °F - 39.0 °F 43% 30.16 in 5.0 mi NNW 4.6 mph - N/A   Haze
4:53 PM 59.0 °F - 39.0 °F 48% 30.17 in 5.0 mi WNW 4.6 mph - N/A   Haze
5:53 PM 54.0 °F - 39.0 °F 57% 30.18 in 6.0 mi Calm Calm - N/A   Haze
6:53 PM 44.1 °F - 35.1 °F 71% 30.20 in 6.0 mi Calm Calm - N/A   Haze
7:53 PM 41.0 °F 39.0 °F 37.0 °F 86% 30.21 in 5.0 mi WNW 3.5 mph - N/A   Clear
8:53 PM 39.9 °F 37.8 °F 37.9 °F 93% 30.22 in 5.0 mi NNW 3.5 mph - N/A   Clear
9:53 PM 42.1 °F 40.2 °F 36.0 °F 79% 30.22 in 5.0 mi NW 3.5 mph - N/A   Haze
10:53 PM 36.0 °F - 33.1 °F 89% 30.22 in 3.0 mi Calm Calm - N/A   Clear
11:24 PM 33.8 °F - 32.0 °F 93% 30.21 in 1.8 mi Calm Calm - N/A   Clear
11:39 PM 35.6 °F - 33.8 °F 93% 30.21 in 0.5 mi Calm Calm - N/A Fog Fog
11:53 PM 34.0 °F - 33.1 °F 96% 30.22 in 1.2 mi Calm Calm - N/A   Clear